QPF
0.00 0.00 0.00 0.00 0.00 0.00 0.00 0.00 0.00 0.00 0.00 0.00 0.00 0.00 0.00 0.00 0.00 0.00 0.00 0.00 0.00 0.00 0.00 0.00 0.00 0.00 0.00 0.00 0.00 0.00 0.00 0.00 0.00 0.00 0.00 0.00 0.00 0.00 0.00 0.00 0.00 0.00 0.00 0.00
0.00 0.00 0.00 0.00 0.00 0.00 0.00 0.00 0.00 0.00 0.00 0.00 0.00 0.00 0.00 0.00 0.00 0.00 0.00 0.00 0.00 0.00 0.00 0.00 0.00 0.00 0.00 0.00 0.00 0.00 0.00 0.00 0.00 0.00 0.00 0.00 0.00 0.00 0.00 0.00 0.00 0.00 0.00 0.00
0.00 0.00 0.00 0.00 0.00 0.00 0.00 0.00 0.00 0.00 0.00 0.00 0.00 0.00 0.00 0.00 0.00 0.00 0.00 0.00 0.00 0.00 0.00 0.00 0.00 0.00 0.00 0.00 0.00 0.00 0.00 0.00 0.00 0.00 0.00 0.00 0.00 0.00 0.00 0.00 0.00 0.00 0.00 0.00
0.00 0.00 0.00 0.00 0.00 0.00 0.00 0.00 0.00 0.00 0.00 0.00 0.00 0.00 0.00 0.00 0.00 0.00 0.00 0.00 0.00 0.00 0.00 0.00 0.00 0.00 0.00 0.00 0.00 0.00 0.00 0.00 0.00 0.00 0.00 0.00 0.00 0.00 0.00 0.00 0.00 0.00 0.00 0.00
0.00 0.00 0.00 0.00 0.00 0.00 0.00 0.00 0.00 0.00 0.00 0.00 0.00 0.00 0.00 0.00 0.00 0.00 0.00 0.00 0.00 0.00 0.00 0.00 0.00 0.00 0.00 0.00 0.00 0.00 0.00 0.00 0.00 0.00 0.00 0.00 0.00 0.00 0.00 0.00 0.00 0.00 0.00 0.00
0.00 0.00 0.00 0.00 0.00 0.00 0.00 0.00 0.00 0.00 0.00 0.00 0.00 0.00 0.00 0.00 0.00 0.00 0.00 0.00 0.00 0.00 0.00 0.00 0.00 0.00 0.00 0.00 0.00 0.00 0.00 0.00 0.00 0.00 0.00 0.00 0.00 0.00 0.00 0.00 0.00 0.00 0.00 0.00
0.00 0.00 0.00 0.00 0.00 0.00 0.00 0.00 0.00 0.00 0.00 0.00 0.00 0.00 0.00 0.00 0.00 0.00 0.00 0.00 0.00 0.00 0.00 0.00 0.00 0.00 0.00 0.00 0.00 0.00 0.00 0.00 0.00 0.00 0.00 0.00 0.00 0.00 0.00 0.00 0.00 0.00 0.00 0.00
0.00 0.00 0.00 0.00 0.00 0.00 0.00 0.00 0.00 0.00 0.00 0.00 0.00 0.00 0.00 0.00 0.00 0.00 0.00 0.00 0.00 0.00 0.00 0.00 0.00 0.00 0.00 0.00 0.00 0.00 0.00 0.00 0.00 0.00 0.00 0.00 0.00 0.00 0.00 0.00 0.00 0.00 0.00 0.00
0.00 0.00 0.00 0.00 0.00 0.00 0.00 0.00 0.00 0.00 0.00 0.00 0.00 0.00 0.00 0.00 0.00 0.00 0.00 0.00 0.00 0.00 0.00 0.00 0.00 0.00 0.00 0.00 0.00 0.00 0.00 0.00 0.00 0.00 0.00 0.00 0.00 0.00 0.00 0.00 0.00 0.00 0.00 0.00
0.00 0.00 0.00 0.00 0.00 0.00 0.00 0.00 0.00 0.00 0.00 0.00 0.00 0.00 0.00 0.00 0.00 0.00 0.00 0.00 0.00 0.00 0.00 0.00 0.00 0.00 0.00 0.00 0.00 0.00 0.00 0.00 0.00 0.00 0.00 0.00 0.00 0.00 0.00 0.00 0.00 0.00 0.00 0.00
0.00 0.00 0.00 0.00 0.00 0.00 0.00 0.00 0.00 0.00 0.00 0.00 0.00 0.00 0.00 0.00 0.00 0.00 0.00 0.00 0.00 0.00 0.00 0.00 0.00 0.00 0.00 0.00 0.00 0.00 0.00 0.00 0.00 0.00 0.00 0.00 0.00 0.00 0.00 0.00 0.00 0.00 0.00 0.00
0.00 0.00 0.00 0.00 0.00 0.00 0.00 0.00 0.00 0.00 0.00 0.00 0.00 0.00 0.00 0.00 0.00 0.00 0.00 0.00 0.00 0.00 0.00 0.00 0.00 0.00 0.00 0.00 0.00 0.00 0.00 0.00 0.00 0.00 0.00 0.00 0.00 0.00 0.00 0.00 0.00 0.00 0.00 0.00
0.00 0.00 0.00 0.00 0.00 0.00 0.00 0.00 0.00 0.00 0.00 0.00 0.00 0.00 0.00 0.00 0.00 0.00 0.00 0.00 0.00 0.00 0.00 0.00 0.00 0.00 0.00 0.00 0.00 0.00 0.00 0.00 0.00 0.00 0.00 0.00 0.00 0.00 0.00 0.00 0.00 0.00 0.00 0.00
0.00 0.00 0.00 0.00 0.00 0.00 0.00 0.00 0.00 0.00 0.00 0.00 0.00 0.00 0.00 0.00 0.00 0.00 0.00 0.00 0.00 0.00 0.00 0.00 0.00 0.00 0.00 0.00 0.00 0.00 0.00 0.00 0.00 0.00 0.00 0.00 0.00 0.00 0.00 0.00 0.00 0.00 0.00 0.00
0.00 0.00 0.00 0.00 0.00 0.00 0.00 0.00 0.00 0.00 0.00 0.00 0.00 0.00 0.00 0.00 0.00 0.00 0.00 0.00 0.00 0.00 0.00 0.00 0.00 0.00 0.00 0.00 0.00 0.00 0.00 0.00 0.00 0.00 0.00 0.00 0.00 0.00 0.00 0.00 0.00 0.00 0.00 0.00
0.00 0.00 0.00 0.00 0.00 0.00 0.00 0.00 0.00 0.00 0.00 0.00 0.00 0.00 0.00 0.00 0.00 0.00 0.00 0.00 0.00 0.00 0.00 0.00 0.00 0.00 0.00 0.00 0.00 0.00 0.00 0.00 0.00 0.00 0.00 0.00 0.00 0.00 0.00 0.00 0.00 0.00 0.00 0.00
0.00 0.00 0.00 0.00 0.00 0.00 0.00 0.00 0.00 0.00 0.00 0.00 0.00 0.00 0.00 0.00 0.00 0.00 0.00 0.00 0.00 0.00 0.00 0.00 0.00 0.00 0.00 0.00 0.00 0.00 0.00 0.00 0.00 0.00 0.00 0.00 0.00 0.00 0.00 0.00 0.00 0.00 0.00 0.00
0.00 0.00 0.00 0.00 0.00 0.00 0.00 0.00 0.00 0.00 0.00 0.00 0.00 0.00 0.00 0.00 0.00 0.00 0.00 0.00 0.00 0.00 0.00 0.00 0.00 0.00 0.00 0.00 0.00 0.00 0.00 0.00 0.00 0.00 0.00 0.00 0.00 0.00 0.00 0.00 0.00 0.00 0.00 0.00
0.00 0.00 0.00 0.00 0.00 0.00 0.00 0.00 0.00 0.00 0.00 0.00 0.00 0.00 0.00 0.00 0.00 0.00 0.00 0.00 0.00 0.00 0.00 0.00 0.00 0.00 0.00 0.00 0.00 0.00 0.00 0.00 0.00 0.00 0.00 0.00 0.00 0.00 0.00 0.00 0.00 0.00 0.00 0.00
0.00 0.00 0.00 0.00 0.00 0.00 0.00 0.00 0.00 0.00 0.00 0.00 0.00 0.00 0.00 0.00 0.00 0.00 0.00 0.00 0.00 0.00 0.00 0.00 0.00 0.00 0.00 0.00 0.00 0.00 0.00 0.00 0.00 0.00 0.00 0.00 0.00 0.00 0.00 0.00 0.00 0.00 0.00 0.00
0.00 0.00 0.00 0.00 0.00 0.00 0.00 0.00 0.00 0.00 0.00 0.00 0.00 0.00 0.00 0.00 0.00 0.00 0.00 0.00 0.00 0.00 0.00 0.00 0.00 0.00 0.00 0.00 0.00 0.00 0.00 0.00 0.00 0.00 0.00 0.00 0.00 0.00 0.00 0.00 0.00 0.00 0.00 0.00
0.00 0.00 0.00 0.00 0.00 0.00 0.00 0.00 0.00 0.00 0.00 0.00 0.00 0.00 0.00 0.00 0.00 0.00 0.00 0.00 0.00 0.00 0.00 0.00 0.00 0.00 0.00 0.00 0.00 0.00 0.00 0.00 0.00 0.00 0.00 0.00 0.00 0.00 0.00 0.00 0.00 0.00 0.00 0.00
0.00 0.00 0.00 0.00 0.00 0.00 0.00 0.00 0.00 0.00 0.00 0.00 0.00 0.00 0.00 0.00 0.00 0.00 0.00 0.00 0.00 0.00 0.00 0.00 0.00 0.00 0.00 0.00 0.00 0.00 0.00 0.00 0.00 0.00 0.00 0.00 0.00 0.00 0.00 0.00 0.00 0.00 0.00 0.00
0.00 0.00 0.00 0.00 0.00 0.00 0.00 0.00 0.00 0.00 0.00 0.00 0.00 0.00 0.00 0.00 0.00 0.00 0.00 0.00 0.00 0.00 0.00 0.00 0.00 0.00 0.00 0.00 0.00 0.00 0.00 0.00 0.00 0.00 0.00 0.00 0.00 0.00 0.00 0.00 0.00 0.00 0.00 0.00
0.00 0.00 0.00 0.00 0.00 0.00 0.00 0.00 0.00 0.00 0.00 0.00 0.00 0.00 0.00 0.00 0.00 0.00 0.00 0.00 0.00 0.00 0.00 0.00 0.00 0.00 0.00 0.00 0.00 0.00 0.00 0.00 0.00 0.00 0.00 0.00 0.00 0.00 0.00 0.00 0.00 0.00 0.00 0.00
0.00 0.00 0.00 0.00 0.00 0.00 0.00 0.00 0.00 0.00 0.00 0.00 0.00 0.00 0.00 0.00 0.00 0.00 0.00 0.00 0.00 0.00 0.00 0.00 0.00 0.00 0.00 0.00 0.00 0.00 0.00 0.00 0.00 0.00 0.00 0.00 0.00 0.00 0.00 0.00 0.00 0.00 0.00 0.00
MSLP
1019.76 1020.34 1020.25 1019.92 1020.17 1020.44 1020.75 1021.12 1020.91 1020.37 1020.07 1020.33 1020.73 1021.38 1021.89 1023.66 1024.79 1025.83 1026.55 1027.04 1027.43 1027.65 1027.73 1027.49 1027.33 1026.96 1026.55 1026.14 1025.81 1025.67 1025.19 1025.05 1024.52 1024.45 1024.67 1025.20 1025.91 1026.46 1026.60 1026.91 1027.00 1026.87 1026.66 1026.28
1020.54 1020.12 1019.54 1019.91 1020.50 1020.82 1021.15 1021.42 1021.25 1020.79 1020.55 1020.89 1021.14 1021.77 1022.51 1023.94 1025.06 1025.93 1026.68 1027.21 1027.50 1027.82 1027.93 1027.90 1027.74 1027.38 1026.73 1026.43 1026.01 1025.58 1025.38 1025.11 1024.92 1024.73 1025.28 1025.60 1026.42 1027.38 1027.82 1028.03 1028.04 1027.89 1027.86 1027.67
1019.80 1019.29 1019.20 1019.89 1020.62 1021.16 1021.32 1021.46 1021.45 1021.31 1021.22 1021.38 1021.80 1022.13 1022.83 1024.23 1025.22 1026.11 1026.79 1027.28 1027.73 1027.80 1028.12 1028.52 1028.48 1028.52 1028.40 1028.04 1027.66 1027.14 1026.72 1026.60 1026.37 1026.18 1026.27 1026.59 1027.04 1027.74 1028.19 1028.77 1028.86 1029.09 1028.87 1028.65
1019.79 1019.15 1019.44 1019.83 1020.34 1020.68 1021.07 1020.86 1021.25 1021.72 1022.12 1022.31 1022.25 1022.58 1022.62 1023.81 1025.11 1026.03 1026.74 1027.26 1027.85 1028.33 1028.36 1028.68 1028.94 1029.01 1029.09 1028.85 1028.51 1028.07 1027.47 1027.23 1027.21 1027.01 1027.19 1027.61 1028.30 1028.83 1029.81 1029.78 1029.90 1029.75 1029.70 1029.60
1018.70 1019.01 1019.30 1019.52 1019.51 1020.15 1020.54 1020.74 1021.49 1022.03 1022.53 1022.79 1022.91 1023.55 1022.19 1023.40 1024.39 1025.33 1026.61 1027.53 1027.95 1028.35 1028.62 1028.62 1029.10 1029.45 1029.76 1029.73 1029.11 1028.94 1028.73 1028.43 1028.38 1028.08 1028.16 1028.48 1029.03 1029.69 1030.11 1030.18 1030.50 1030.80 1030.77 1030.43
1018.63 1018.52 1018.66 1018.65 1019.23 1019.62 1020.64 1021.29 1022.33 1023.05 1023.55 1023.47 1022.17 1022.64 1022.09 1022.37 1021.95 1023.65 1025.21 1026.76 1027.60 1028.26 1028.75 1028.86 1029.01 1029.51 1029.97 1030.38 1029.69 1029.28 1029.23 1029.45 1029.41 1029.35 1029.56 1029.84 1030.24 1030.51 1030.43 1030.71 1030.73 1031.33 1031.65 1031.43
1018.73 1018.39 1018.20 1018.35 1019.33 1020.00 1020.43 1021.33 1022.97 1024.03 1024.19 1023.03 1022.40 1022.85 1020.73 1020.83 1021.57 1022.59 1023.71 1025.04 1026.48 1027.73 1028.56 1028.76 1028.86 1029.20 1029.42 1030.41 1030.35 1030.21 1029.82 1030.32 1030.42 1030.26 1030.29 1030.46 1030.79 1030.94 1031.19 1031.47 1031.55 1031.89 1031.80 1031.80
1018.47 1018.21 1017.63 1017.66 1017.83 1018.64 1019.87 1020.21 1021.08 1022.42 1023.83 1023.43 1023.12 1022.01 1020.48 1021.08 1021.92 1023.00 1024.02 1024.88 1026.05 1027.37 1028.05 1028.41 1028.62 1028.82 1029.29 1029.78 1029.09 1030.15 1030.65 1030.52 1030.65 1031.00 1031.30 1031.17 1031.12 1031.13 1031.47 1031.85 1032.32 1032.58 1032.33 1032.50
1017.32 1017.24 1016.86 1017.12 1017.37 1017.85 1019.54 1019.91 1019.90 1021.59 1023.92 1023.64 1021.81 1021.00 1020.53 1021.53 1022.49 1023.17 1023.86 1025.02 1025.72 1026.63 1027.21 1027.70 1028.22 1028.60 1029.43 1029.69 1029.62 1030.07 1030.39 1030.73 1031.15 1031.19 1031.30 1031.42 1031.36 1031.53 1031.68 1032.07 1032.33 1032.44 1032.69 1032.57
1015.71 1016.70 1017.11 1017.37 1017.49 1018.05 1018.14 1018.54 1020.03 1021.00 1022.48 1022.55 1021.17 1020.74 1020.21 1021.19 1022.08 1023.35 1024.01 1024.40 1025.10 1025.93 1026.74 1027.19 1027.62 1028.08 1028.93 1029.53 1029.90 1030.06 1030.44 1030.64 1030.96 1031.24 1031.19 1031.25 1031.36 1031.63 1032.11 1032.16 1032.28 1032.26 1032.70 1032.78
1015.26 1015.93 1017.66 1017.66 1017.47 1017.32 1018.34 1018.50 1019.31 1019.98 1020.83 1021.07 1021.10 1019.70 1018.82 1019.64 1020.85 1022.28 1023.21 1023.77 1024.42 1025.30 1026.04 1026.55 1027.03 1027.85 1028.40 1029.32 1029.56 1029.79 1030.21 1030.48 1030.86 1031.09 1031.11 1031.26 1031.56 1031.59 1031.81 1031.96 1032.31 1032.26 1032.52 1032.65
1014.25 1015.27 1017.01 1017.05 1017.13 1017.26 1017.12 1017.36 1017.77 1018.97 1020.29 1020.76 1020.70 1018.97 1018.73 1019.28 1019.90 1020.95 1022.02 1022.88 1023.68 1024.16 1024.84 1025.55 1026.43 1027.37 1027.96 1028.63 1028.99 1029.58 1029.99 1030.20 1030.43 1030.69 1030.74 1031.04 1031.15 1031.51 1031.65 1031.88 1032.16 1032.31 1032.44 1032.64
1013.55 1014.60 1016.46 1017.31 1017.77 1017.70 1017.43 1017.21 1017.34 1017.85 1018.51 1019.07 1020.18 1018.67 1019.04 1019.33 1020.04 1020.70 1021.39 1022.40 1023.11 1023.78 1024.58 1025.31 1026.06 1026.30 1026.95 1027.55 1028.21 1028.85 1029.34 1029.77 1030.16 1030.44 1030.54 1030.92 1030.93 1031.19 1031.49 1031.63 1031.86 1032.18 1032.55 1032.72
1012.48 1013.56 1013.84 1013.82 1014.40 1015.26 1016.82 1016.92 1017.15 1017.32 1018.25 1018.11 1017.26 1018.08 1018.96 1019.19 1019.74 1020.41 1020.96 1021.72 1022.45 1023.19 1023.76 1024.60 1025.28 1025.54 1026.10 1026.76 1027.30 1027.87 1028.49 1029.02 1029.50 1030.03 1030.37 1030.55 1030.86 1031.08 1031.32 1031.69 1032.02 1032.37 1032.49 1032.64
1012.52 1013.40 1014.03 1014.27 1014.50 1014.84 1015.28 1015.93 1016.63 1016.71 1016.56 1016.80 1016.59 1017.03 1017.67 1018.06 1018.67 1019.21 1019.55 1021.26 1022.19 1022.86 1023.35 1023.91 1024.44 1024.84 1025.52 1026.43 1027.00 1027.27 1027.88 1028.47 1028.92 1029.50 1029.98 1030.14 1030.51 1030.92 1031.31 1031.73 1032.01 1032.06 1032.39 1032.62
1013.30 1013.71 1014.18 1015.26 1015.53 1015.68 1015.81 1015.38 1015.64 1016.27 1016.27 1016.20 1016.49 1016.30 1016.46 1017.13 1018.20 1019.02 1019.83 1020.91 1021.70 1022.27 1022.84 1023.27 1023.78 1024.39 1024.92 1025.33 1026.11 1026.68 1027.26 1027.81 1028.37 1029.00 1029.45 1029.94 1030.39 1030.98 1031.32 1031.79 1032.06 1032.19 1032.38 1032.48
1013.94 1014.07 1014.75 1015.48 1016.28 1016.65 1016.65 1014.88 1015.57 1015.57 1015.76 1015.64 1016.48 1015.62 1016.92 1017.50 1018.02 1018.64 1019.64 1020.29 1020.88 1021.73 1022.30 1022.85 1023.22 1023.44 1023.80 1024.47 1025.14 1025.88 1026.24 1027.11 1027.77 1028.42 1029.15 1029.54 1030.13 1030.74 1031.34 1031.83 1032.19 1032.11 1032.16 1032.22
1013.86 1014.38 1014.63 1016.12 1016.79 1015.92 1014.44 1014.55 1014.28 1014.81 1015.39 1016.04 1016.53 1016.48 1016.72 1017.18 1017.81 1018.66 1019.39 1020.02 1020.70 1021.30 1021.54 1021.91 1022.29 1022.96 1023.51 1023.92 1024.61 1025.15 1025.88 1026.50 1027.31 1028.04 1028.74 1029.39 1030.09 1030.76 1031.34 1031.86 1031.85 1031.79 1032.01 1032.18
1014.30 1014.38 1015.52 1016.20 1016.23 1015.18 1014.86 1014.86 1014.67 1014.80 1015.19 1015.80 1016.60 1016.99 1017.57 1018.28 1018.81 1019.11 1019.09 1019.45 1019.87 1020.46 1020.79 1021.49 1021.89 1022.49 1022.98 1023.49 1024.17 1024.93 1025.54 1026.23 1026.95 1027.49 1028.20 1029.02 1029.79 1030.70 1031.23 1031.56 1031.55 1031.64 1031.83 1032.03
1014.91 1014.48 1014.65 1015.72 1015.64 1015.04 1014.05 1013.96 1014.08 1014.49 1015.46 1015.45 1015.97 1017.14 1018.22 1018.65 1019.33 1019.03 1019.15 1019.49 1019.87 1020.28 1020.55 1021.24 1021.77 1022.52 1023.05 1023.37 1024.12 1024.87 1025.42 1026.08 1026.62 1026.88 1027.53 1028.55 1029.58 1030.38 1030.89 1031.10 1031.40 1031.45 1031.57 1031.67
1015.32 1014.98 1014.40 1014.64 1014.59 1014.42 1013.77 1014.21 1014.59 1015.14 1015.47 1014.97 1016.15 1017.31 1018.15 1018.33 1017.92 1018.37 1019.08 1019.61 1019.77 1020.08 1020.41 1021.07 1021.75 1022.23 1022.31 1022.97 1023.87 1024.60 1025.21 1025.78 1025.72 1026.66 1027.51 1028.51 1029.38 1030.05 1030.55 1030.98 1031.16 1031.15 1031.34 1031.50
1014.39 1014.59 1014.58 1014.54 1014.59 1014.24 1013.40 1014.72 1014.49 1014.05 1014.81 1015.39 1016.16 1016.84 1017.44 1017.40 1017.92 1018.34 1019.00 1019.46 1019.82 1020.18 1020.58 1020.94 1021.46 1021.74 1021.76 1022.85 1023.64 1024.35 1024.92 1024.60 1025.63 1026.50 1027.51 1028.48 1029.28 1029.89 1030.38 1030.73 1030.85 1030.92 1031.18 1031.28
1014.47 1013.26 1013.46 1013.86 1013.20 1012.85 1012.96 1013.11 1013.19 1013.42 1014.21 1015.22 1015.48 1016.03 1016.46 1017.21 1017.79 1018.09 1018.74 1019.17 1019.66 1019.90 1020.34 1020.52 1021.10 1021.38 1021.77 1022.56 1023.18 1023.95 1023.85 1024.71 1025.66 1026.56 1027.59 1028.49 1029.23 1029.65 1029.97 1030.28 1030.38 1030.58 1030.69 1030.68
1013.51 1013.36 1013.22 1013.66 1013.34 1013.17 1013.25 1013.03 1013.49 1013.79 1014.23 1014.86 1015.28 1015.84 1016.57 1017.25 1017.61 1018.23 1018.84 1019.38 1019.64 1019.76 1020.10 1020.49 1021.38 1021.78 1021.95 1022.22 1022.81 1023.05 1023.82 1024.59 1025.61 1026.55 1027.55 1028.42 1028.99 1029.31 1029.56 1029.75 1029.91 1029.96 1029.88 1030.02
1012.44 1012.87 1013.36 1013.80 1013.85 1013.73 1013.37 1013.14 1013.35 1013.84 1014.50 1015.08 1015.71 1016.13 1016.51 1017.03 1017.67 1018.14 1018.66 1019.31 1019.42 1019.65 1019.76 1020.45 1020.99 1021.24 1021.41 1021.90 1022.61 1023.31 1023.87 1024.62 1025.77 1026.64 1027.39 1027.96 1028.54 1028.83 1028.96 1029.08 1028.95 1028.82 1029.00 1029.19
1011.81 1012.25 1012.59 1012.41 1012.43 1012.35 1012.37 1012.48 1012.82 1013.78 1014.27 1014.97 1015.66 1016.18 1016.55 1016.91 1017.31 1017.96 1018.47 1018.77 1019.14 1019.51 1020.11 1020.54 1020.82 1021.14 1021.32 1022.00 1022.72 1023.52 1023.91 1024.54 1025.50 1026.47 1027.14 1027.55 1027.87 1028.23 1028.38 1028.42 1028.37 1028.10 1027.69 1027.48
Thickness
5643 5636 5639 5642 5641 5644 5637 5634 5640 5644 5647 5645 5641 5641 5650 5621 5614 5609 5605 5603 5600 5599 5598 5599 5600 5603 5606 5608 5608 5607 5609 5609 5611 5610 5608 5602 5595 5589 5587 5583 5582 5581 5581 5582
5627 5627 5643 5639 5634 5634 5629 5626 5627 5632 5634 5632 5631 5633 5635 5614 5610 5605 5599 5595 5594 5591 5590 5590 5591 5594 5599 5600 5602 5604 5604 5604 5604 5604 5598 5595 5586 5577 5571 5567 5566 5565 5563 5562
5622 5638 5636 5634 5623 5620 5616 5615 5616 5624 5623 5621 5620 5621 5619 5600 5595 5592 5589 5586 5583 5584 5581 5577 5577 5575 5574 5576 5578 5582 5584 5583 5583 5583 5581 5578 5573 5565 5559 5552 5548 5544 5542 5541
5616 5630 5628 5623 5619 5617 5606 5615 5615 5611 5607 5602 5610 5605 5623 5599 5589 5585 5580 5575 5571 5568 5569 5567 5563 5561 5559 5560 5560 5563 5568 5569 5568 5567 5563 5558 5551 5545 5534 5533 5530 5528 5525 5522
5622 5613 5615 5614 5621 5614 5611 5607 5603 5601 5594 5594 5596 5590 5613 5594 5597 5584 5570 5563 5560 5558 5557 5558 5553 5548 5543 5541 5545 5545 5545 5547 5545 5547 5544 5540 5533 5525 5518 5515 5509 5504 5500 5502
5613 5614 5609 5615 5611 5609 5594 5594 5584 5568 5569 5571 5600 5598 5600 5604 5620 5592 5577 5561 5555 5550 5547 5546 5544 5537 5531 5526 5529 5531 5530 5526 5524 5523 5518 5513 5508 5503 5501 5497 5493 5485 5478 5477
5600 5602 5606 5605 5596 5595 5594 5589 5568 5564 5559 5581 5576 5577 5609 5610 5598 5594 5584 5570 5556 5546 5538 5536 5534 5529 5525 5513 5510 5510 5512 5506 5503 5501 5498 5495 5489 5484 5479 5473 5469 5464 5462 5459
5583 5587 5596 5601 5603 5595 5581 5589 5577 5567 5559 5567 5554 5574 5605 5584 5572 5567 5564 5559 5546 5533 5527 5524 5521 5516 5510 5504 5509 5497 5490 5489 5486 5480 5475 5473 5471 5467 5460 5453 5445 5440 5438 5433
5579 5587 5596 5597 5595 5598 5582 5577 5586 5547 5471 5529 5573 5581 5588 5560 5555 5548 5548 5542 5538 5529 5522 5517 5510 5505 5496 5491 5490 5484 5478 5474 5468 5465 5460 5454 5451 5446 5441 5434 5428 5423 5417 5412
5592 5585 5584 5584 5587 5583 5586 5584 5570 5552 5553 5542 5570 5573 5585 5562 5553 5535 5534 5538 5531 5521 5511 5506 5500 5493 5484 5476 5472 5468 5463 5460 5454 5447 5444 5438 5432 5426 5418 5413 5408 5404 5397 5392
5582 5583 5568 5573 5574 5581 5572 5571 5561 5567 5551 5547 5534 5567 5567 5574 5553 5536 5530 5529 5521 5513 5504 5496 5490 5481 5474 5463 5458 5454 5448 5444 5437 5431 5426 5419 5412 5407 5401 5396 5389 5384 5379 5373
5583 5569 5542 5563 5565 5562 5573 5573 5571 5562 5542 5514 5526 5564 5546 5548 5548 5539 5529 5522 5514 5508 5498 5489 5480 5469 5462 5452 5447 5440 5434 5429 5422 5415 5411 5402 5396 5389 5382 5375 5369 5363 5357 5351
5576 5557 5531 5547 5553 5546 5552 5556 5554 5547 5534 5510 5531 5550 5530 5531 5527 5520 5518 5508 5502 5495 5483 5475 5466 5463 5453 5445 5437 5428 5421 5413 5406 5399 5392 5383 5377 5370 5362 5355 5350 5342 5334 5328
5579 5553 5572 5592 5583 5563 5543 5541 5540 5550 5510 5535 5551 5542 5526 5526 5522 5511 5506 5498 5491 5483 5477 5467 5458 5452 5446 5435 5426 5417 5407 5398 5391 5380 5372 5365 5357 5350 5343 5335 5328 5320 5314 5306
5563 5562 5543 5553 5558 5550 5548 5538 5528 5537 5549 5538 5556 5543 5532 5533 5522 5511 5506 5484 5475 5469 5462 5454 5448 5442 5431 5419 5409 5401 5392 5383 5374 5364 5356 5349 5341 5333 5324 5316 5308 5303 5293 5285
5528 5536 5530 5519 5516 5522 5518 5533 5528 5525 5530 5537 5525 5527 5532 5523 5496 5491 5484 5471 5466 5460 5452 5443 5436 5426 5417 5409 5397 5388 5377 5367 5359 5351 5341 5332 5322 5312 5304 5295 5287 5280 5273 5266
5514 5509 5515 5530 5483 5490 5505 5524 5511 5509 5502 5529 5505 5538 5488 5496 5490 5480 5468 5461 5461 5446 5438 5430 5422 5415 5407 5397 5387 5375 5365 5354 5345 5334 5324 5315 5305 5295 5284 5275 5266 5260 5253 5246
5501 5504 5506 5461 5466 5497 5509 5487 5508 5511 5504 5477 5475 5465 5485 5486 5474 5465 5454 5447 5437 5430 5427 5419 5410 5399 5390 5381 5372 5363 5351 5341 5330 5319 5308 5296 5285 5274 5263 5253 5247 5241 5234 5228
5480 5486 5454 5460 5469 5481 5471 5475 5484 5491 5494 5473 5476 5469 5458 5445 5441 5446 5437 5432 5430 5420 5412 5402 5394 5385 5376 5368 5359 5347 5335 5323 5312 5303 5291 5279 5267 5253 5243 5235 5230 5224 5218 5213
5460 5472 5488 5440 5460 5477 5495 5474 5470 5475 5456 5449 5463 5448 5420 5422 5409 5426 5419 5414 5407 5398 5391 5383 5375 5368 5360 5351 5340 5328 5317 5305 5296 5286 5277 5262 5248 5236 5228 5222 5215 5211 5205 5202
5446 5444 5476 5450 5456 5448 5457 5445 5447 5451 5467 5434 5427 5414 5409 5414 5420 5414 5404 5395 5388 5380 5372 5365 5358 5353 5347 5334 5321 5312 5298 5288 5281 5267 5256 5243 5232 5223 5215 5208 5203 5198 5193 5188
5447 5444 5443 5434 5431 5442 5437 5426 5441 5441 5417 5420 5414 5411 5407 5407 5403 5394 5383 5380 5371 5363 5354 5349 5343 5339 5331 5315 5301 5292 5281 5277 5262 5251 5239 5228 5218 5211 5203 5195 5190 5185 5179 5174
5436 5444 5445 5440 5440 5422 5425 5426 5421 5416 5410 5399 5405 5401 5398 5391 5386 5379 5373 5366 5356 5351 5344 5336 5327 5321 5312 5297 5287 5278 5274 5259 5247 5236 5224 5212 5203 5197 5191 5184 5180 5173 5167 5162
5409 5410 5412 5413 5409 5404 5401 5398 5395 5389 5391 5387 5387 5383 5372 5372 5366 5362 5354 5346 5340 5331 5325 5315 5302 5295 5293 5279 5273 5270 5256 5246 5233 5221 5210 5200 5192 5186 5179 5175 5168 5162 5156 5150
5414 5402 5383 5379 5384 5380 5378 5373 5371 5368 5368 5367 5363 5360 5358 5353 5350 5344 5338 5326 5321 5315 5307 5296 5291 5286 5283 5269 5260 5249 5242 5232 5219 5207 5199 5190 5181 5174 5169 5163 5157 5152 5145 5138
5403 5393 5388 5372 5379 5374 5373 5366 5359 5355 5356 5349 5346 5343 5340 5336 5334 5325 5320 5313 5305 5301 5289 5281 5276 5270 5264 5253 5243 5233 5226 5219 5207 5196 5186 5178 5171 5163 5157 5151 5145 5140 5137 5133